******** Week 363 almanac for PRN-1 ******** ID: 1 Health: 0 Eccentricity: 0.001646518707 Time of Applicability(s): 319488 Orbital Inclination(rad): 0.9579913752 Rate of Right Ascen(r/s): -8.068907531e-09 SQRT(A) (m 1/2): 5153.572266 Right Ascen at Week(rad): 2.76010107 Argument of Perigee(rad): 0.122128989 Mean Anom(rad): 1.330121258 Af0(s): 0.0002456978271 Af1(s/s): -7.275958e-12 week: 363 ******** Week 363 almanac for PRN-2 ******** ID: 2 Health: 0 Eccentricity: 0.01686000824 Time of Applicability(s): 319488 Orbital Inclination(rad): 0.9631326077 Rate of Right Ascen(r/s): -7.920329913e-09 SQRT(A) (m 1/2): 5153.537109 Right Ascen at Week(rad): 2.597700217 Argument of Perigee(rad): -0.7986212579 Mean Anom(rad): 2.821791741 Af0(s): 5.124985352e-05 Af1(s/s): 7.275958e-12 week: 363 ******** Week 363 almanac for PRN-3 ******** ID: 3 Health: 0 Eccentricity: 0.006587505341 Time of Applicability(s): 319488 Orbital Inclination(rad): 0.9937463102 Rate of Right Ascen(r/s): -7.748894201e-09 SQRT(A) (m 1/2): 5153.574219 Right Ascen at Week(rad): -2.535628673 Argument of Perigee(rad): 1.202744677 Mean Anom(rad): -0.7659691136 Af0(s): 0.000416781897 Af1(s/s): -1.455192e-11 week: 363 ******** Week 363 almanac for PRN-4 ******** ID: 4 Health: 0 Eccentricity: 0.003713607788 Time of Applicability(s): 319488 Orbital Inclination(rad): 0.970556835 Rate of Right Ascen(r/s): -7.703178011e-09 SQRT(A) (m 1/2): 5153.677246 Right Ascen at Week(rad): -1.465434018 Argument of Perigee(rad): -2.873217173 Mean Anom(rad): 2.195656436 Af0(s): 3.994473877e-05 Af1(s/s): 0 week: 363 ******** Week 363 almanac for PRN-5 ******** ID: 5 Health: 0 Eccentricity: 0.005438327789 Time of Applicability(s): 319488 Orbital Inclination(rad): 0.9802940178 Rate of Right Ascen(r/s): -7.886042771e-09 SQRT(A) (m 1/2): 5153.672852 Right Ascen at Week(rad): -2.595653536 Argument of Perigee(rad): 1.416298696 Mean Anom(rad): 2.867097354 Af0(s): -0.0001823891846 Af1(s/s): 0 week: 363 ******** Week 363 almanac for PRN-6 ******** ID: 6 Health: 0 Eccentricity: 0.003828048706 Time of Applicability(s): 319488 Orbital Inclination(rad): 0.9868254203 Rate of Right Ascen(r/s): -7.794610391e-09 SQRT(A) (m 1/2): 5153.606934 Right Ascen at Week(rad): 2.711279211 Argument of Perigee(rad): -0.5487172119 Mean Anom(rad): 0.5330860375 Af0(s): -0.0004838589111 Af1(s/s): 0 week: 363 ******** Week 363 almanac for PRN-7 ******** ID: 7 Health: 0 Eccentricity: 0.02062749863 Time of Applicability(s): 319488 Orbital Inclination(rad): 0.951160367 Rate of Right Ascen(r/s): -7.863184676e-09 SQRT(A) (m 1/2): 5153.558594 Right Ascen at Week(rad): -0.4567075761 Argument of Perigee(rad): -1.984449827 Mean Anom(rad): -0.3158270202 Af0(s): -0.0001303856567 Af1(s/s): -3.637979e-12 week: 363 ******** Week 363 almanac for PRN-8 ******** ID: 8 Health: 0 Eccentricity: 0.01159191132 Time of Applicability(s): 319488 Orbital Inclination(rad): 0.9429751414 Rate of Right Ascen(r/s): -8.011762293e-09 SQRT(A) (m 1/2): 5153.644043 Right Ascen at Week(rad): 1.589826902 Argument of Perigee(rad): 0.5325624767 Mean Anom(rad): 2.500443738 Af0(s): 0.0003738224609 Af1(s/s): -7.275958e-12 week: 363 ******** Week 363 almanac for PRN-9 ******** ID: 9 Health: 0 Eccentricity: 0.003343105316 Time of Applicability(s): 319488 Orbital Inclination(rad): 0.9647504781 Rate of Right Ascen(r/s): -7.794610391e-09 SQRT(A) (m 1/2): 5153.717773 Right Ascen at Week(rad): -1.529855968 Argument of Perigee(rad): 2.056463409 Mean Anom(rad): 3.100303255 Af0(s): 0.0006044468018 Af1(s/s): -3.637979e-12 week: 363 ******** Week 363 almanac for PRN-10 ******** ID: 10 Health: 0 Eccentricity: 0.0109295845 Time of Applicability(s): 319488 Orbital Inclination(rad): 0.9932789255 Rate of Right Ascen(r/s): -7.726036106e-09 SQRT(A) (m 1/2): 5153.608887 Right Ascen at Week(rad): -2.538136372 Argument of Perigee(rad): -2.25491281 Mean Anom(rad): -1.761372094 Af0(s): -0.0004665244019 Af1(s/s): 0 week: 363 ******** Week 363 almanac for PRN-11 ******** ID: 11 Health: 0 Eccentricity: 0.0022149086 Time of Applicability(s): 319488 Orbital Inclination(rad): 0.9637018584 Rate of Right Ascen(r/s): -8.023191341e-09 SQRT(A) (m 1/2): 5153.538086 Right Ascen at Week(rad): 2.729561895 Argument of Perigee(rad): -2.312317248 Mean Anom(rad): 1.656186177 Af0(s): -0.0003127748413 Af1(s/s): 1.455192e-11 week: 363 ******** Week 363 almanac for PRN-12 ******** ID: 12 Health: 0 Eccentricity: 0.008967399597 Time of Applicability(s): 319488 Orbital Inclination(rad): 0.9592736873 Rate of Right Ascen(r/s): -7.806039438e-09 SQRT(A) (m 1/2): 5153.70459 Right Ascen at Week(rad): 0.6608655886 Argument of Perigee(rad): 1.567711139 Mean Anom(rad): -0.9992723865 Af0(s): -0.0004808442139 Af1(s/s): 0 week: 363 ******** Week 363 almanac for PRN-13 ******** ID: 13 Health: 0 Eccentricity: 0.01007032394 Time of Applicability(s): 319488 Orbital Inclination(rad): 0.9761474759 Rate of Right Ascen(r/s): -7.657461821e-09 SQRT(A) (m 1/2): 5153.626465 Right Ascen at Week(rad): -1.354394931 Argument of Perigee(rad): 0.9940180529 Mean Anom(rad): 2.266091845 Af0(s): 0.0005388771362 Af1(s/s): 0 week: 363 ******** Week 363 almanac for PRN-14 ******** ID: 14 Health: 0 Eccentricity: 0.00684928894 Time of Applicability(s): 319488 Orbital Inclination(rad): 0.9426395831 Rate of Right Ascen(r/s): -7.966046103e-09 SQRT(A) (m 1/2): 5153.595215 Right Ascen at Week(rad): 0.6058763471 Argument of Perigee(rad): -2.739406186 Mean Anom(rad): -1.14151877 Af0(s): 0.0005856049438 Af1(s/s): 0 week: 363 ******** Week 363 almanac for PRN-15 ******** ID: 15 Health: 0 Eccentricity: 0.01663970947 Time of Applicability(s): 319488 Orbital Inclination(rad): 0.9426995042 Rate of Right Ascen(r/s): -8.046049436e-09 SQRT(A) (m 1/2): 5153.653809 Right Ascen at Week(rad): -1.674505563 Argument of Perigee(rad): 1.504986454 Mean Anom(rad): 1.507211026 Af0(s): 0.0003142821899 Af1(s/s): 3.637979e-12 week: 363 ******** Week 363 almanac for PRN-16 ******** ID: 16 Health: 0 Eccentricity: 0.01502227783 Time of Applicability(s): 319488 Orbital Inclination(rad): 0.9583868546 Rate of Right Ascen(r/s): -7.817468486e-09 SQRT(A) (m 1/2): 5153.602051 Right Ascen at Week(rad): 0.6778000474 Argument of Perigee(rad): 0.9317678692 Mean Anom(rad): -2.744402859 Af0(s): 0.0001838965332 Af1(s/s): 7.275958e-12 week: 363 ******** Week 363 almanac for PRN-17 ******** ID: 17 Health: 0 Eccentricity: 0.01261043549 Time of Applicability(s): 319488 Orbital Inclination(rad): 0.9586265391 Rate of Right Ascen(r/s): -7.840326581e-09 SQRT(A) (m 1/2): 5153.556641 Right Ascen at Week(rad): 1.694927806 Argument of Perigee(rad): -1.117795622 Mean Anom(rad): 2.449112306 Af0(s): -7.612110596e-05 Af1(s/s): -1.091394e-11 week: 363 ******** Week 363 almanac for PRN-18 ******** ID: 18 Health: 0 Eccentricity: 0.005798816681 Time of Applicability(s): 319488 Orbital Inclination(rad): 0.971779226 Rate of Right Ascen(r/s): -7.931758961e-09 SQRT(A) (m 1/2): 5153.588867 Right Ascen at Week(rad): 2.705921513 Argument of Perigee(rad): -2.86759807 Mean Anom(rad): 0.4634063833 Af0(s): -0.0003105138184 Af1(s/s): 1.091394e-11 week: 363 ******** Week 363 almanac for PRN-19 ******** ID: 19 Health: 0 Eccentricity: 0.01124000549 Time of Applicability(s): 319488 Orbital Inclination(rad): 0.9577936355 Rate of Right Ascen(r/s): -7.851755628e-09 SQRT(A) (m 1/2): 5153.677246 Right Ascen at Week(rad): 1.738819655 Argument of Perigee(rad): 2.940716448 Mean Anom(rad): -2.044035767 Af0(s): 0.0005494285767 Af1(s/s): 0 week: 363 ******** Week 363 almanac for PRN-20 ******** ID: 20 Health: 0 Eccentricity: 0.00223493576 Time of Applicability(s): 319488 Orbital Inclination(rad): 0.9601485357 Rate of Right Ascen(r/s): -7.851755628e-09 SQRT(A) (m 1/2): 5153.709473 Right Ascen at Week(rad): -1.524356332 Argument of Perigee(rad): -1.96141727 Mean Anom(rad): -1.047171835 Af0(s): 5.727924805e-05 Af1(s/s): 2.182787e-11 week: 363 ******** Week 363 almanac for PRN-21 ******** ID: 21 Health: 0 Eccentricity: 0.000804901123 Time of Applicability(s): 319488 Orbital Inclination(rad): 0.963150584 Rate of Right Ascen(r/s): -8.046049436e-09 SQRT(A) (m 1/2): 5153.729004 Right Ascen at Week(rad): -2.530070989 Argument of Perigee(rad): -0.2635364763 Mean Anom(rad): -1.349314369 Af0(s): 0.0003248336304 Af1(s/s): 3.637979e-12 week: 363 ******** Week 363 almanac for PRN-22 ******** ID: 22 Health: 0 Eccentricity: 0.01204442978 Time of Applicability(s): 319488 Orbital Inclination(rad): 0.9578355803 Rate of Right Ascen(r/s): -7.817468486e-09 SQRT(A) (m 1/2): 5153.566895 Right Ascen at Week(rad): 0.6811575029 Argument of Perigee(rad): -0.9935502937 Mean Anom(rad): 3.096521109 Af0(s): -2.261022949e-05 Af1(s/s): 7.275958e-12 week: 363 ******** Week 363 almanac for PRN-23 ******** ID: 23 Health: 0 Eccentricity: 0.006062030792 Time of Applicability(s): 319488 Orbital Inclination(rad): 0.9882695194 Rate of Right Ascen(r/s): -7.794610391e-09 SQRT(A) (m 1/2): 5153.664551 Right Ascen at Week(rad): -2.570322255 Argument of Perigee(rad): -2.737894676 Mean Anom(rad): -0.6864459167 Af0(s): 0.0004966713745 Af1(s/s): 3.637979e-12 week: 363 ******** Week 363 almanac for PRN-24 ******** ID: 24 Health: 0 Eccentricity: 0.01794815063 Time of Applicability(s): 319488 Orbital Inclination(rad): 0.935119482 Rate of Right Ascen(r/s): -8.034620388e-09 SQRT(A) (m 1/2): 5153.586426 Right Ascen at Week(rad): -0.5656033593 Argument of Perigee(rad): 1.137937733 Mean Anom(rad): 0.6670569388 Af0(s): -5.200352783e-05 Af1(s/s): 1.818989e-11 week: 363 ******** Week 363 almanac for PRN-25 ******** ID: 25 Health: 0 Eccentricity: 0.01290655136 Time of Applicability(s): 319488 Orbital Inclination(rad): 0.9476849418 Rate of Right Ascen(r/s): -7.943188008e-09 SQRT(A) (m 1/2): 5153.655273 Right Ascen at Week(rad): 0.5668044033 Argument of Perigee(rad): 1.159380882 Mean Anom(rad): -1.120400693 Af0(s): 0.0003436754883 Af1(s/s): -3.637979e-12 week: 363 ******** Week 363 almanac for PRN-26 ******** ID: 26 Health: 0 Eccentricity: 0.01101112366 Time of Applicability(s): 319488 Orbital Inclination(rad): 0.9284862135 Rate of Right Ascen(r/s): -8.137481816e-09 SQRT(A) (m 1/2): 5153.665039 Right Ascen at Week(rad): 0.4918629254 Argument of Perigee(rad): 0.7114584921 Mean Anom(rad): -1.941034725 Af0(s): -0.0002728301025 Af1(s/s): -3.637979e-12 week: 363 ******** Week 363 almanac for PRN-27 ******** ID: 27 Health: 0 Eccentricity: 0.01438093185 Time of Applicability(s): 319488 Orbital Inclination(rad): 0.952065176 Rate of Right Ascen(r/s): -7.931758961e-09 SQRT(A) (m 1/2): 5153.617676 Right Ascen at Week(rad): 1.622068587 Argument of Perigee(rad): 0.8889351258 Mean Anom(rad): 2.605840876 Af0(s): -6.406231689e-05 Af1(s/s): -1.455192e-11 week: 363 ******** Week 363 almanac for PRN-28 ******** ID: 28 Health: 0 Eccentricity: 0.0004501342773 Time of Applicability(s): 319488 Orbital Inclination(rad): 0.9620779959 Rate of Right Ascen(r/s): -7.748894201e-09 SQRT(A) (m 1/2): 5153.75293 Right Ascen at Week(rad): -0.4821897834 Argument of Perigee(rad): -0.1425441162 Mean Anom(rad): 0.1363231799 Af0(s): -0.0004506972412 Af1(s/s): 7.275958e-12 week: 363 ******** Week 363 almanac for PRN-29 ******** ID: 29 Health: 0 Eccentricity: 0.003447055817 Time of Applicability(s): 319488 Orbital Inclination(rad): 0.961281045 Rate of Right Ascen(r/s): -7.828897533e-09 SQRT(A) (m 1/2): 5153.699707 Right Ascen at Week(rad): 1.711723697 Argument of Perigee(rad): 2.745169101 Mean Anom(rad): 2.459610862 Af0(s): -0.0002788594971 Af1(s/s): 7.275958e-12 week: 363 ******** Week 363 almanac for PRN-30 ******** ID: 30 Health: 0 Eccentricity: 0.008141040802 Time of Applicability(s): 319488 Orbital Inclination(rad): 0.9364197704 Rate of Right Ascen(r/s): -8.023191341e-09 SQRT(A) (m 1/2): 5153.686035 Right Ascen at Week(rad): -0.4660361717 Argument of Perigee(rad): -2.302713389 Mean Anom(rad): -0.5141872894 Af0(s): 0.0001303856567 Af1(s/s): 1.455192e-11 week: 363 ******** Week 363 almanac for PRN-31 ******** ID: 31 Health: 0 Eccentricity: 0.0108332634 Time of Applicability(s): 319488 Orbital Inclination(rad): 0.9549294058 Rate of Right Ascen(r/s): -7.806039438e-09 SQRT(A) (m 1/2): 5153.522461 Right Ascen at Week(rad): -0.4323927073 Argument of Perigee(rad): 0.9390673857 Mean Anom(rad): -1.402165175 Af0(s): -0.0001258636108 Af1(s/s): 3.637979e-12 week: 363 ******** Week 363 almanac for PRN-32 ******** ID: 32 Health: 0 Eccentricity: 0.009368896484 Time of Applicability(s): 319488 Orbital Inclination(rad): 0.9677764949 Rate of Right Ascen(r/s): -7.760323248e-09 SQRT(A) (m 1/2): 5153.694824 Right Ascen at Week(rad): -1.512769834 Argument of Perigee(rad): -1.98812786 Mean Anom(rad): -3.115381657 Af0(s): -2.487125244e-05 Af1(s/s): 1.818989e-11 week: 363